Regional Weather Roundup
Issued by NWS

Home | Current Version | Previous Version | Text Only | Print | Product List | Glossary Off
Versions: 1 2 3 4 5 6 7 8 9 10 11 12 13 14 15 16 17 18 19 20 21 22 23 24 25 26 27 28 29 30 31 32 33 34 35 36 37 38 39 40 41 42 43 44 45 46 47 48 49 50

000
ASUS44 KMEG 232110
RWRTN
TENNESSEE HOURLY STATE WEATHER ROUNDUP
NATIONAL WEATHER SERVICE MEMPHIS TN
400 PM CDT SAT MAY 23 2015

TNZ002-004-019-021-049-052-054-088>092-232200-
WEST TENNESSEE

CITY           SKY/WX    TMP DP  RH WIND       PRES   REMARKS
MEMPHIS INTL   MOSUNNY   84  52  33 SE12      30.20F
NWS MEMPHIS      N/A     83 N/A N/A MISG        N/A
JACKSON        SUNNY     81  54  39 VRB7      30.23F
DYERSBURG      SUNNY     81  48  32 S9        30.23F
PARIS          SUNNY     75  54  46 E7        30.26F
LEXINGTON      SUNNY     79  54  41 CALM      30.23F
$$

TNZ008-025-027-028-033-062-065-066-232200-
NORTH MIDDLE TENNESSEE

CITY           SKY/WX    TMP DP  RH WIND       PRES   REMARKS
NASHVILLE      PTSUNNY   82  53  36 SE7       30.27F
CLARKSVILLE    SUNNY     79  50  36 VRB5      30.26F
SMYRNA         MOSUNNY   81  56  42 VRB6      30.27F
COOKEVILLE     SUNNY     82  55  39 CALM      30.29F
CROSSVILLE     MOSUNNY   75  50  41 MISG      30.35F
$$

TNZ061-075-076-078-094-096-097-232200-
SOUTH MIDDLE TENNESSEE

CITY           SKY/WX    TMP DP  RH WIND       PRES   REMARKS
FAYETTEVILLE   SUNNY    N/A N/A N/A MISG      30.27F
TULLAHOMA      SUNNY     79  48  34 S3        30.29F
WINCHESTER     SUNNY     81  52  36 S9        30.28F
MCMINNVILLE    SUNNY     82  55  39 VRB7      30.28F
COLUMBIA       SUNNY     82  57  42 VRB7      30.24F
SHELBYVILLE    SUNNY     82  55  39 SE7       30.28F
$$

TNZ017-018-042-046-047-232200-
NORTHEAST TENNESSEE

CITY           SKY/WX    TMP DP  RH WIND       PRES   REMARKS
TRI CITIES     MOSUNNY   80  43  26 W8        30.34F
ELIZABETHTON   CLEAR     77  43  29 NE3       30.34F
$$

TNZ012-013-036-069-073-074-232200-
CENTRAL EAST TENNESSEE

CITY           SKY/WX    TMP DP  RH WIND       PRES   REMARKS
KNOXVILLE      MOSUNNY   81  52  36 NW3       30.30F
OAK RIDGE      MOSUNNY   82  48  30 W3        30.33F
GATLINBURG     CLEAR     79  48  34 VRB3      30.31F
MORRISTOWN     CLEAR     79  52  38 CALM      30.34F
$$

TNZ083-085-099-232200-
SOUTHEAST TENNESSEE

CITY           SKY/WX    TMP DP  RH WIND       PRES   REMARKS
CHATTANOOGA    MOSUNNY   81  48  31 SE5       30.29F
$$

SKY/WX REPORTED AS FAIR MEANS FEW OR NO CLOUDS BELOW
12 THOUSAND FEET.



USA.gov is the U.S. government's official web portal to all federal, state and local government web resources and services.